STARLINK-30251, 57532

Orbit data source: Space-Track

STARLINK-30251, 57532 is a payload satellite owned by SpaceX/Seattle (US) in LEO that was launched on Tue, 08 Aug 2023 UTC via an FALCON 9 launch vehicle from the Air Force Western Test Range (AFWTR). Payload-class satellites include a variety of spacecraft equipped with specific instruments for various scientific and technological missions. These include communications satellites like Starlink; space stations such as the ISS; scientific satellites like the Hubble; Earth observation satellites from companies like Planet Labs, Umbra, and HawkEye 360; GPS; miniature CubeSats for education and research; and military/defense satellites.

Loading next visibility...
Identifier
57532, 2023-115M
Orbit
LEO
Country
Flag of USUS
Related business
Manufacturer
SpaceX/Seattle
Mission
Operational Commercial Communications
Bus & Motor
STARLINK V2M, Unknown motor
Mass
730 kg wet, ~700 kg dry
Launch date (UTC)
2023-08-08 (3 years ago)
Launch vehicle
FALCON 9
Launch site
Air Force Western Test Range (AFWTR)
Object type
Payload
Rocket body
Debris
Shape & HBR
Box + 2 Pan, 17.7 m
Radar Cross Section
33.884 m², Large (>1 m²)

Expand to show TLE details & history
Last TLE update: 2 days ago

TLE from 2 days ago
0 STARLINK-30251
1 57532U 23115M   26171.27760767 -.00000026  00000-0  85686-5 0  9990
2 57532  43.0023 141.9955 0001125 276.8582  83.2142 15.27575546158042
Epoch: 2026-06-20T06:39Z
TLE epoch observation values (Epoch: 2026-06-20T06:39:45.302Z)
Latitude
-0°
Longitude
133.5622°
Altitude
482.747 km
Speed
7.626 km/s
True Right ascension
09h 27m 58s
True Declination
0° 00' 00"
Sunlit
Object was in daylight at epoch
Visualization orbit readout
Latitude
Unknown
Longitude
Unknown
Altitude
Unknown
Speed
Unknown
Apparent Right ascension
Unknown
Apparent Declination
Unknown
Sunlit
N/A
Visualization observer readout
Local Sidereal Time
21:26:25
Azimuth
Unknown
Elevation
Unknown
Doppler factor
Unknown
Orbital elements
Apogee altitude
485.779 km
Perigee altitude
484.235 km
Semi-major axis
6,863.144 km
Eccentricity
0.00011
Inclination
43.0023°
RAAN
141.9955°
Arg. of periapsis
276.8582°
True anomaly
83.227°
Mean anomaly
83.2142°
Eccentric anomaly
83.2206°
Mean motion
3.81732 °/min
Orbital period
94.31 mins
BSTAR
0.0000085686
Loading maneuver chart data...
Computing Atmospheric mass density...
Loading historical data...
Loading historical data...
Loading historical data...
Loading historical data...
Loading historical data...
Loading historical data...
Loading historical data...

Documentation

Showing up to 5 results
|